SCOUT G-1 DEB

Satellite information

Favourite Embed

Satellite Type and Status

DEBRISIN ORBIT

Key statistics

Satellite SCOUT G-1 DEB at a glance.

Uptime

11860

Days in orbit

Revolutions

≈ 15.3

Per day

Orbit

LEO

Low Earth Orbit

Inclination

89.5

Latest

Satellite identification and parameters

Extended collection of information and parameters for SCOUT G-1 DEB.

Object identification

Identified? True

Debris? True

Object name: SCOUT G-1 DEB

International designator: 1993-041E

Object number (NORAD): 35401

Object ID (CCSDS): 35401

Country: UNITED STATES OF AMERICA (US)

Current information (Y/N): Y

RCS size: SMALL

Orbital parameters

Period: 94.1 minutes

Inclination: 89.498 deg

SMA: 6853.069 km

Apoapsis: 483.159 km

Periapsis: 466.71 km

RAAN: 31.4911 deg

Eccentricy: 0.0012001

Argument of periapsis: 310.0548 deg

Mean anomaly: 49.965 deg

Mean motion: 15.30294696 rev/day

Mean motion (dot): 0.00202352 rev/day2

B* drag term: 0.006725654 1/REarth

Two-line elements (TLE)

Creation date: Dec. 14, 2025, 3:07 a.m.

Reference frame: TEME

Reference center: EARTH

Epoch: Dec. 13, 2025, 9:31 a.m. UTC

TLE line 0: 0 SCOUT G-1 DEB

TLE line 1: 1 35401U 93041E 25347.39666562 .00202352 00000-0 67257-2 0 9997

TLE line 2: 2 35401 89.4980 31.4911 0012001 310.0548 49.9650 15.30294696728147

Live tracking on map

Real-time ground track for satellite SCOUT G-1 DEB.

In-orbit conjunctions

A list of the most updated potential collisions computed for object SCOUT G-1 DEB.

Target Orbit TCA Probability of collision Miss distance Type
HELIOS 1B SSO 2024-11-08 04:57:07 0.0003465662 466.0 (m) PAYLOAD

Associated space launch

RadCal (Radar Calibration) is small satellite to calibrate the Space Command radars to determine orbital positions of other satellites to within a few meters.

SCOUT G-1 DEB was lifted into orbit during the mission ‘Scout G-1 | RADCAL’, on board a Scout G-1 space rocket.

The launch took place on June 25, 1993, 11:30 p.m. from Space Launch Complex 5.

For more information about the launch, click the button.

Launch to space Scout G-1 | RADCAL
Scout G-1 | RADCAL

Agency: N/A

Status: Launch Successful

Launch date: June 25, 1993, 11:30 p.m. UTC

Rocket: Scout G-1

Launch pad: Space Launch Complex 5

Location: Vandenberg SFB, CA, USA

...

Latest news about this satellite

There are no fresh news available about this satellite. Check back as we update our databases every day.


Newsletter sign-up

Weekly statistics, charts and insights to help you stay on top of the space industry.